Voltar ao catálogo

STARLINK-37177

AtivoComunicaçõesSSO
NORAD 68611·PAYLOAD·🇺🇸 United States

Lançado Apr 5, 2026 de Vandenberg Space Force Base

Loading…

Próximas Passagens (próximas 24 horas)

TLE

AtualizadoSource: CelesTrak SupGP

Época: Sep 15, 2026, 03:48 UTC

1 68611C 26073K   26258.15881944 -.00045801  00000+0 -14213-2 0  2583
2 68611  97.2855  96.2542 0001733  94.3038 212.9753 15.33473412    12

Acompanhe STARLINK-37177 em tempo real com AllMySat

Download on the App Store